Regional Weather Roundup
Issued by NWS

Home | Current Version | Previous Version | Text Only | Print | Product List | Glossary Off
Versions: 1 2 3 4 5 6 7 8 9 10 11 12 13 14 15 16 17 18 19 20 21 22 23 24 25 26 27 28 29 30 31 32 33 34 35 36 37 38 39 40 41 42 43 44 45 46 47 48 49 50

000
ASUS43 KFSD 271510
RWRSD

WEATHER ROUNDUP FOR SOUTH DAKOTA
NATIONAL WEATHER SERVICE SIOUX FALLS SD
1000 AM CDT MON MAR 27 2017

NOTE: "FAIR" INDICATES FEW OR NO CLOUDS BELOW 12,000 FEET WITH NO
SIGNIFICANT WEATHER AND/OR OBSTRUCTIONS TO VISIBILITY.


SDZ001>005-009-010-012>017-271600-
NORTHWEST AND NORTH CENTRAL SOUTH DAKOTA

CITY           SKY/WX    TMP DP  RH WIND       PRES   REMARKS
BUFFALO          N/A     43  39  86 SE6       29.83S
FAITH            N/A     42  42 100 MISG      29.91R
MOBRIDGE       FOG       37  35  92 SE6       29.91S VSB 1/4
$$

SDZ012>016-024>037-041>051-057-063-072>074-271600-
SOUTHWEST AND SOUTH CENTRAL SOUTH DAKOTA

CITY           SKY/WX    TMP DP  RH WIND       PRES   REMARKS
RAPID CTY ARPT MOSUNNY   36  34  92 E3        29.89F
PIERRE         CLOUDY    44  39  82 E3        29.94R
CUSTER         CLOUDY    38  34  85 CALM      29.88S
ELLSWORTH AFB  SUNNY     40  36  86 CALM      29.88S
PHILIP         SUNNY     46  40  79 CALM      29.93R
PINE RIDGE     MOSUNNY   45  40  82 CALM      29.90S
SPEARFISH      FAIR      43  34  70 CALM      29.88S
WINNER         FAIR      43  40  89 SW3       29.95S
$$

SDZ004>011-016>023-039-040-271600-
NORTHEAST SOUTH DAKOTA

CITY           SKY/WX    TMP DP  RH WIND       PRES   REMARKS
ABERDEEN       MOSUNNY   45  38  76 S6        29.97R
WATERTOWN      CLOUDY    40  37  89 CALM      29.96R
BROOKINGS      MOSUNNY   39  37  93 W3        29.97R
SISSETON         N/A     42  39  89 S5        29.98R
$$

SDZ017-020-022-023-036>040-048>070-271600-
SOUTHEAST SOUTH DAKOTA

CITY           SKY/WX    TMP DP  RH WIND       PRES   REMARKS
SIOUX FALLS    CLOUDY    46  39  76 CALM      29.97F
HURON          CLOUDY    44  41  89 S6        29.98R
CHAMBERLAIN    CLOUDY    41  41 100 CALM      29.96S
MITCHELL       CLOUDY    41  40  96 SW3       29.99S
YANKTON        CLOUDY    45  39  81 CALM      29.98S
$$

ABBREVIATIONS USED IN REMARKS
   TC - TEMPERATURE IN CELSIUS
  WCI - WIND CHILL INDEX
   HX - HEAT INDEX
  VSB - VISIBILITY





USA.gov is the U.S. government's official web portal to all federal, state and local government web resources and services.